CW5217 Weather Reports


time (UTC)temp
C
wind
direction
speed
KPH
gust
KPH
rain 1hr
cm
rain 24hr
cm
rain mn
cm
humidity
%
barometer
mb
20260506202508 14 168 4.8 6.4 0.00 0.91 0.91 99 1007.3
20260506202004 14 189 3.2 4.8 0.00 0.91 0.91 99 1007.1
20260506201502 14 119 1.6 3.2 0.00 0.91 0.91 99 1007.1
20260506200952 14 134 0.0 1.6 0.00 0.91 0.91 99 1007.2
20260506200448 14 99 0.0 3.2 0.00 0.91 0.91 99 1007.1
20260506195944 14 64 3.2 3.2 0.00 0.91 0.91 99 1007.2
20260506195442 14 104 0.0 3.2 0.00 0.91 0.91 99 1007.2
20260506194938 14 90 0.0 3.2 0.00 0.91 0.91 99 1007.2
20260506194436 14 161 3.2 4.8 0.00 0.91 0.91 99 1007.2
20260506193932 14 84 1.6 6.4 0.00 0.91 0.91 99 1007.2
20260506193430 14 99 0.0 1.6 0.00 0.91 0.91 99 1007.4
20260506192926 14 102 3.2 6.4 0.00 0.91 0.91 99 1007.3
20260506192423 14 102 1.6 3.2 0.00 0.91 0.91 99 1007.5
20260506191920 14 110 1.6 3.2 0.00 0.91 0.91 99 1007.9
20260506191416 14 326 3.2 6.4 0.00 0.91 0.91 99 1007.7
20260506190913 14 123 1.6 4.8 0.18 0.91 0.91 99 1008.0
20260506190410 14 165 1.6 1.6 0.18 0.91 0.91 99 1007.9
20260506185907 14 103 0.0 1.6 0.00 0.89 0.89 99 1007.9
20260506185404 14 131 3.2 4.8 0.13 0.89 0.89 99 1007.9
20260506184901 14 123 3.2 3.2 0.30 0.89 0.89 99 1008.0
20260506184358 14 103 0.0 3.2 0.18 0.86 0.86 99 1007.9
20260506183855 14 253 4.8 6.4 0.13 0.84 0.84 99 1008.1
20260506183350 14 157 3.2 9.7 0.30 0.84 0.84 99 1008.1
20260506182848 14 126 0.0 4.8 0.30 0.81 0.81 99 1008.1
20260506182345 14 108 1.6 4.8 0.13 0.79 0.79 99 1008.2
20260506181842 14 162 1.6 3.2 0.18 0.76 0.76 99 1008.2
20260506181340 14 111 1.6 6.4 0.30 0.76 0.76 99 1008.4
20260506180837 14 173 1.6 4.8 0.13 0.74 0.74 99 1008.1
20260506180333 14 92 0.0 0.0 0.00 0.71 0.71 99 1008.3
20260506175829 14 110 0.0 3.2 0.00 0.71 0.71 99 1008.3
20260506175326 14 239 4.8 6.4 0.18 0.71 0.71 99 1008.3
20260506174823 14 177 1.6 3.2 0.18 0.71 0.71 99 1008.4
20260506174321 14 93 0.0 6.4 0.13 0.69 0.69 99 1008.4
20260506173818 14 95 0.0 4.8 0.13 0.69 0.69 99 1008.5
20260506173315 14 73 1.6 6.4 0.00 0.66 0.66 99 1008.4
20260506172812 14 109 0.0 1.6 0.00 0.66 0.66 99 1008.5
20260506172308 14 163 6.4 6.4 0.00 0.66 0.66 99 1008.5
20260506171806 14 113 3.2 3.2 0.00 0.66 0.66 99 1008.4
20260506171303 14 115 1.6 1.6 0.00 0.66 0.66 99 1008.4
20260506170800 14 110 1.6 3.2 0.00 0.66 0.66 99 1008.5
20260506170256 14 122 0.0 1.6 0.00 0.66 0.66 99 1008.7
20260506165755 14 116 1.6 11.3 0.00 0.66 0.66 99 1008.5
20260506165252 14 88 0.0 3.2 0.18 0.66 0.66 99 1008.6
20260506164749 14 95 0.0 3.2 0.18 0.66 0.66 99 1008.5
20260506164246 14 72 1.6 4.8 0.00 0.64 0.64 99 1008.4
20260506163743 14 104 0.0 4.8 0.13 0.64 0.64 99 1008.5
20260506163237 14 119 0.0 3.2 0.18 0.61 0.61 99 1008.5
20260506162734 15 103 0.0 0.0 0.18 0.61 0.61 99 1008.5
20260506162232 15 104 0.0 1.6 0.18 0.58 0.58 99 1008.5
20260506161729 15 100 0.0 0.0 0.30 0.58 0.58 99 1008.4
20260506161226 15 114 0.0 11.3 0.61 0.56 0.56 99 1008.8
20260506160724 15 92 0.0 1.6 0.61 0.53 0.53 99 1009.0
20260506160220 15 110 0.0 1.6 0.43 0.46 0.46 99 1009.4
20260506155719 15 103 1.6 3.2 0.48 0.43 0.43 99 1009.6
20260506155215 15 107 0.0 3.2 0.30 0.38 0.38 99 1009.5
20260506153317 15 104 0.0 3.2 0.30 0.23 0.23 98 1009.8
20260506152814 15 103 0.0 1.6 0.18 0.20 0.20 98 1009.8
20260506152311 15 99 0.0 1.6 0.13 0.18 0.18 98 1009.8
20260506151810 15 99 0.0 0.0 0.30 0.18 0.18 97 1009.5
20260506151306 15 89 0.0 0.0 0.30 0.15 0.15 97 1009.5
20260506150803 15 84 0.0 0.0 0.13 0.13 0.13 97 1009.4
20260506150304 15 102 0.0 0.0 0.18 0.10 0.10 96 1009.6
20260506145757 15 97 0.0 1.6 0.30 0.10 0.10 95 1009.5
20260506145253 15 104 1.6 1.6 0.30 0.08 0.08 94 1009.5
20260506144751 15 99 0.0 4.8 0.30 0.05 0.05 92 1009.6
20260506144248 16 95 0.0 1.6 0.13 0.03 0.03 91 1009.7
20260506143745 16 33 1.6 3.2 0.00 0.00 0.00 88 1009.9
20260506143242 16 103 1.6 3.2 0.00 0.00 0.00 88 1009.8
20260506142741 16 77 1.6 1.6 0.00 0.00 0.00 87 1009.8
20260506142239 16 100 0.0 1.6 0.00 0.00 0.00 85 1009.8
20260506141736 16 84 0.0 1.6 0.00 0.00 0.00 86 1009.7
20260506141235 16 83 0.0 1.6 0.00 0.00 0.00 87 1009.7
20260506140732 16 112 1.6 1.6 0.00 0.00 0.00 86 1009.6
20260506140229 16 4 0.0 3.2 0.00 0.00 0.00 87 1009.4
20260506135725 16 117 1.6 1.6 0.00 0.00 0.00 85 1009.4
20260506135222 16 97 1.6 1.6 0.00 0.00 0.00 85 1009.7
20260506134719 16 105 1.6 1.6 0.00 0.00 0.00 85 1009.6
20260506134215 16 137 1.6 6.4 0.00 0.00 0.00 85 1009.5
20260506133712 16 110 1.6 1.6 0.00 0.00 0.00 85 1009.6
20260506133208 16 109 3.2 4.8 0.00 0.00 0.00 84 1009.7
20260506132706 16 95 1.6 1.6 0.00 0.00 0.00 84 1009.8
20260506132203 16 165 3.2 3.2 0.00 0.00 0.00 83 1009.6
20260506131701 16 259 6.4 11.3 0.00 0.00 0.00 83 1009.8
20260506131156 16 129 0.0 1.6 0.00 0.00 0.00 83 1009.9
20260506130653 16 121 4.8 4.8 0.00 0.00 0.00 83 1010.0
20260506130151 16 141 1.6 3.2 0.00 0.00 0.00 83 1009.9
20260506125649 17 110 3.2 3.2 0.00 0.00 0.00 83 1009.8
20260506125146 16 76 1.6 3.2 0.00 0.00 0.00 83 1009.8
20260506124644 16 99 0.0 1.6 0.00 0.00 0.00 83 1009.8
20260506124142 16 95 1.6 3.2 0.00 0.00 0.00 83 1009.9
20260506123639 16 150 1.6 1.6 0.00 0.00 0.00 83 1009.6
20260506123138 16 141 3.2 6.4 0.00 0.00 0.00 83 1009.6
20260506122634 16 112 0.0 3.2 0.00 0.00 0.00 84 1009.5
20260506122132 16 162 3.2 3.2 0.00 0.00 0.00 83 1009.5
20260506121629 16 72 4.8 12.9 0.00 0.00 0.00 83 1009.7
20260506121125 16 89 3.2 3.2 0.00 0.00 0.00 84 1009.6
20260506120624 16 95 1.6 4.8 0.00 0.00 0.00 83 1009.6
20260506120121 16 141 1.6 3.2 0.00 0.00 0.00 84 1009.8
20260506115619 16 216 1.6 6.4 0.00 0.00 0.00 84 1009.7
20260506115117 16 104 0.0 1.6 0.00 0.00 0.00 85 1009.6
20260506114614 16 108 0.0 1.6 0.00 0.00 0.00 84 1009.7
20260506114112 16 76 1.6 3.2 0.00 0.00 0.00 85 1009.8
20260506113610 16 109 1.6 3.2 0.00 0.00 0.00 85 1009.9
20260506113107 16 4 3.2 4.8 0.00 0.00 0.00 84 1009.8
20260506112603 16 113 0.0 1.6 0.00 0.00 0.00 85 1009.8
20260506112101 16 103 0.0 0.0 0.00 0.00 0.00 85 1009.9
20260506111558 16 102 1.6 3.2 0.00 0.00 0.00 85 1009.7
20260506111055 16 97 0.0 1.6 0.00 0.00 0.00 85 1009.5
20260506110553 16 114 0.0 0.0 0.00 0.00 0.00 85 1009.6
20260506110050 16 111 0.0 11.3 0.00 0.00 0.00 85 1009.7
20260506105546 16 98 0.0 0.0 0.00 0.00 0.00 85 1009.6
20260506105044 16 137 0.0 4.8 0.00 0.00 0.00 85 1009.5
20260506104542 16 103 0.0 0.0 0.00 0.00 0.00 86 1009.3
20260506104039 16 107 0.0 3.2 0.00 0.00 0.00 85 1009.4
20260506103536 16 100 1.6 4.8 0.00 0.00 0.00 86 1009.3
20260506103033 16 84 1.6 3.2 0.00 0.00 0.00 86 1009.4
20260506102531 16 117 0.0 0.0 0.00 0.00 0.00 85 1009.2
20260506102028 16 90 0.0 1.6 0.00 0.00 0.00 85 1009.3
20260506101525 16 104 0.0 3.2 0.00 0.00 0.00 85 1009.2
20260506101022 16 104 0.0 3.2 0.00 0.00 0.00 86 1009.4
20260506100520 16 89 0.0 3.2 0.00 0.00 0.00 86 1009.4
20260506100018 16 100 1.6 4.8 0.00 0.00 0.00 86 1009.5
20260506095517 16 100 1.6 1.6 0.00 0.00 0.00 85 1009.4
20260506095012 16 104 0.0 3.2 0.00 0.00 0.00 85 1009.2
20260506094510 16 112 0.0 0.0 0.00 0.00 0.00 85 1009.3
20260506094008 16 117 0.0 0.0 0.00 0.00 0.00 85 1009.3
20260506093506 16 91 0.0 0.0 0.00 0.00 0.00 85 1009.5
20260506093004 16 94 0.0 0.0 0.00 0.00 0.00 84 1009.4
20260506092501 16 105 0.0 0.0 0.00 0.00 0.00 84 1009.3
20260506091957 16 101 1.6 1.6 0.00 0.00 0.00 84 1009.3
20260506091456 16 142 0.0 3.2 0.00 0.00 0.00 83 1009.3
20260506090953 16 119 1.6 3.2 0.00 0.00 0.00 83 1009.3
20260506090451 16 98 1.6 4.8 0.00 0.00 0.00 82 1009.5
20260506085946 16 99 0.0 1.6 0.00 0.00 0.00 82 1009.6
20260506085444 16 105 0.0 0.0 0.00 0.00 0.00 81 1009.6
20260506084940 16 117 3.2 3.2 0.00 0.00 0.00 80 1009.3
20260506084437 16 90 1.6 1.6 0.00 0.00 0.00 80 1009.6
20260506083933 16 104 1.6 3.2 0.00 0.00 0.00 80 1009.6
20260506083430 16 114 0.0 1.6 0.00 0.00 0.00 80 1009.4
20260506082928 16 111 0.0 0.0 0.00 0.00 0.00 80 1009.5
20260506082425 16 74 3.2 4.8 0.00 0.00 0.00 79 1009.5
20260506081920 16 83 3.2 3.2 0.00 0.00 0.00 79 1009.7
20260506081419 16 73 1.6 3.2 0.00 0.00 0.00 79 1009.6
20260506080915 16 112 0.0 0.0 0.00 0.00 0.00 78 1009.7
20260506080412 16 108 1.6 9.7 0.00 0.00 0.00 77 1009.6
20260506073356 17 76 1.6 4.8 0.00 0.00 0.00 75 1009.6
20260506072853 17 94 0.0 0.0 0.00 0.00 0.00 75 1009.8
20260506072351 17 98 0.0 0.0 0.00 0.00 0.00 74 1009.9
20260506071848 17 60 1.6 3.2 0.00 0.00 0.00 74 1009.8
20260506071346 17 120 0.0 1.6 0.00 0.00 0.00 73 1009.9
20260506070843 17 124 0.0 0.0 0.00 0.00 0.00 73 1009.8
20260506070340 17 109 1.6 3.2 0.00 0.00 0.00 72 1009.9
20260506062317 17 74 4.8 9.7 0.00 0.00 0.00 70 1010.3
20260506061813 17 113 1.6 1.6 0.00 0.00 0.00 70 1010.4
20260506061310 17 89 0.0 1.6 0.00 0.00 0.00 70 1010.3
20260506060808 18 128 0.0 1.6 0.00 0.00 0.00 70 1010.3
20260506060306 18 98 0.0 1.6 0.00 0.00 0.00 69 1010.2
20260506051237 17 137 1.6 3.2 0.00 0.00 0.00 70 1010.5
20260506050735 17 111 1.6 1.6 0.00 0.00 0.00 70 1010.8
20260506050232 17 139 1.6 3.2 0.00 0.00 0.00 69 1010.8
20260506044723 17 107 0.0 0.0 0.00 0.00 0.00 69 1010.8
20260506044220 17 89 1.6 3.2 0.00 0.00 0.00 69 1010.9
20260506043718 17 135 1.6 3.2 0.00 0.00 0.00 69 1010.8
20260506043215 17 101 1.6 1.6 0.00 0.00 0.00 69 1010.9
20260506042714 18 102 0.0 0.0 0.00 0.00 0.00 69 1010.9
20260506042212 18 72 0.0 1.6 0.00 0.00 0.00 68 1011.0
20260506041710 18 113 1.6 1.6 0.00 0.00 0.00 68 1010.8
20260506041207 18 97 0.0 0.0 0.00 0.00 0.00 67 1010.9
20260506040704 18 97 0.0 1.6 0.00 0.00 0.00 67 1010.9
20260506040201 18 96 0.0 0.0 0.00 0.00 0.00 67 1010.9
20260506035658 18 96 0.0 1.6 0.00 0.00 0.00 66 1010.9
20260506035155 18 90 1.6 3.2 0.00 0.00 0.00 65 1011.0
20260506034651 18 114 1.6 3.2 0.00 0.00 0.00 64 1010.9
20260506034149 18 97 3.2 3.2 0.00 0.00 0.00 64 1011.0
20260506033646 18 120 3.2 3.2 0.00 0.00 0.00 63 1010.9
20260506033143 18 117 3.2 4.8 0.00 0.00 0.00 62 1010.8
20260506032640 18 88 1.6 1.6 0.00 0.00 0.00 61 1010.8
20260506032137 18 116 1.6 1.6 0.00 0.00 0.00 60 1010.7
20260506031634 19 94 0.0 0.0 0.00 0.00 0.00 59 1010.8
20260506031130 19 94 0.0 0.0 0.00 0.00 0.00 59 1010.8
20260506030629 19 104 0.0 0.0 0.00 0.00 0.00 58 1010.8
20260506030126 20 102 0.0 0.0 0.00 0.00 0.00 57 1010.7
20260506025623 20 124 3.2 3.2 0.00 0.00 0.00 57 1010.6
20260506025119 20 124 3.2 3.2 0.00 0.00 0.00 57 1010.7
20260506024617 20 97 0.0 0.0 0.00 0.00 0.00 56 1010.7
20260506024112 20 92 0.0 0.0 0.00 0.00 0.00 55 1011.0
20260506023609 20 108 1.6 1.6 0.00 0.00 0.00 55 1010.9
20260506023106 20 58 1.6 3.2 0.00 0.00 0.00 54 1010.9
20260506022604 20 94 0.0 0.0 0.00 0.00 0.00 55 1010.7
20260506022101 20 85 3.2 3.2 0.00 0.00 0.00 55 1010.8
20260506021559 20 79 1.6 1.6 0.00 0.00 0.00 54 1010.6
20260506021055 20 133 1.6 3.2 0.00 0.00 0.00 54 1010.6
20260506020553 20 53 3.2 4.8 0.00 0.00 0.00 52 1010.5
20260506020050 20 104 0.0 0.0 0.00 0.00 0.00 53 1010.7
20260506015548 20 133 0.0 0.0 0.00 0.00 0.00 53 1010.5
20260506015044 21 97 0.0 1.6 0.00 0.00 0.00 53 1010.7
20260506014542 20 110 3.2 4.8 0.00 0.00 0.00 53 1010.7
20260506014037 21 93 0.0 0.0 0.00 0.00 0.00 52 1010.5
20260506013536 21 90 0.0 0.0 0.00 0.00 0.00 53 1010.5
20260506013032 21 93 0.0 1.6 0.00 0.00 0.00 53 1010.4
20260506012528 21 107 0.0 0.0 0.00 0.00 0.00 54 1010.4
20260506012025 21 97 0.0 0.0 0.00 0.00 0.00 53 1010.1
20260506011523 21 142 4.8 4.8 0.00 0.00 0.00 52 1010.2
20260506011019 21 93 0.0 1.6 0.00 0.00 0.00 52 1010.1
20260506010519 21 94 0.0 0.0 0.00 0.00 0.00 51 1010.1
20260506010015 21 99 0.0 0.0 0.00 0.00 0.00 50 1010.1
20260506005512 21 102 0.0 0.0 0.00 0.00 0.00 50 1010.1
20260506005007 21 96 0.0 0.0 0.00 0.00 0.00 49 1009.9
20260506004505 21 96 0.0 0.0 0.00 0.00 0.00 49 1009.9
20260506004001 21 96 0.0 0.0 0.00 0.00 0.00 49 1009.7
20260506003458 21 96 0.0 1.6 0.00 0.00 0.00 47 1009.8
20260506002954 21 95 0.0 1.6 0.00 0.00 0.00 47 1009.7
20260506002451 21 101 0.0 3.2 0.00 0.00 0.00 47 1009.6
20260506001946 22 99 0.0 0.0 0.00 0.00 0.00 45 1009.6
20260506001443 22 90 0.0 0.0 0.00 0.00 0.00 45 1009.5
20260506000940 22 100 0.0 0.0 0.00 0.00 0.00 44 1009.6
20260506000438 22 106 0.0 11.3 0.00 0.00 0.00 43 1009.7
20260505235935 22 85 0.0 6.4 0.00 0.00 0.00 43 1009.6
20260505235433 22 114 1.6 3.2 0.00 0.00 0.00 43 1009.5
20260505234929 22 101 0.0 0.0 0.00 0.00 0.00 44 1009.5
20260505234427 22 155 0.0 1.6 0.00 0.00 0.00 42 1009.5
20260505233923 22 95 0.0 3.2 0.00 0.00 0.00 42 1009.5
20260505233421 23 89 0.0 0.0 0.00 0.00 0.00 41 1009.4
20260505232918 23 105 1.6 3.2 0.00 0.00 0.00 41 1009.4
20260505232416 23 161 1.6 9.7 0.00 0.00 0.00 40 1009.4
20260505231913 23 104 0.0 12.9 0.00 0.00 0.00 41 1009.3
20260505231410 23 220 3.2 9.7 0.00 0.00 0.00 39 1009.3
20260505230908 23 86 3.2 4.8 0.00 0.00 0.00 40 1009.1
20260505230406 23 43 3.2 11.3 0.00 0.00 0.00 40 1009.3
20260505225902 24 28 6.4 6.4 0.00 0.00 0.00 39 1009.1
20260505225359 24 247 11.3 14.5 0.00 0.00 0.00 38 1009.3
20260505224854 24 194 3.2 9.7 0.00 0.00 0.00 40 1009.1
20260505224352 24 98 1.6 14.5 0.00 0.00 0.00 40 1009.0
20260505223849 24 282 8.0 16.1 0.00 0.00 0.00 38 1009.0
20260505223346 24 114 1.6 4.8 0.00 0.00 0.00 42 1009.0
20260505222842 24 186 8.0 9.7 0.00 0.00 0.00 39 1008.7
20260505222338 24 319 6.4 11.3 0.00 0.00 0.00 41 1008.7
20260505221835 24 125 0.0 3.2 0.00 0.00 0.00 40 1008.8
20260505221332 24 119 4.8 6.4 0.00 0.00 0.00 40 1008.8
20260505220829 24 94 1.6 4.8 0.00 0.00 0.00 40 1008.9
20260505220326 25 133 3.2 6.4 0.00 0.00 0.00 40 1009.0
20260505215824 25 100 3.2 9.7 0.00 0.00 0.00 41 1008.9
20260505215322 25 203 4.8 14.5 0.00 0.00 0.00 38 1009.0
20260505214820 25 107 1.6 9.7 0.00 0.00 0.00 40 1008.9
20260505214317 25 141 1.6 14.5 0.00 0.00 0.00 38 1009.1
20260505213813 25 108 3.2 11.3 0.00 0.00 0.00 40 1008.8
20260505213312 25 323 4.8 6.4 0.00 0.00 0.00 37 1008.9
20260505212807 25 82 4.8 9.7 0.00 0.00 0.00 38 1008.8
20260505212306 25 256 3.2 12.9 0.00 0.00 0.00 38 1008.7
20260505211800 25 319 3.2 6.4 0.00 0.00 0.00 37 1008.7
20260505211259 25 129 0.0 4.8 0.00 0.00 0.00 38 1008.8
20260505210754 25 72 3.2 6.4 0.00 0.00 0.00 38 1008.7
20260505210252 25 194 1.6 9.7 0.00 0.00 0.00 37 1008.5
20260505205749 25 221 6.4 9.7 0.00 0.00 0.00 37 1008.6
20260505205247 25 59 0.0 4.8 0.00 0.00 0.00 40 1008.6
20260505204743 25 114 0.0 11.3 0.00 0.00 0.00 38 1008.3
20260505204241 25 84 3.2 4.8 0.00 0.00 0.00 37 1008.4
20260505203738 26 221 0.0 22.5 0.00 0.00 0.00 35 1008.5
20260505203235 26 330 9.7 14.5 0.00 0.00 0.00 34 1008.4